Weather History for KCEF - January, 2013

Change the Weather History Date:

Friday, January 18, 2013

  Actual Average Record
Temperature  
Mean Temperature 30 °F -  
Max Temperature 44 °F 27 °F 59 °F (2006)
Min Temperature 17 °F 13 °F -9 °F (2003)
Degree Days  
Heating Degree Days 34    
Moisture  
Dew Point 4 °F    
Average Humidity 47    
Maximum Humidity 71    
Minimum Humidity 35    
Precipitation  
Precipitation 0.00 in - - ()
Sea Level Pressure  
Sea Level Pressure 30.33 in    
Wind  
Wind Speed 9 mph (NW)    
Max Wind Speed 15 mph    
Max Gust Speed 28 mph    
Visibility 10 miles    
Events      
Averages and records for this station are not official NWS values.
T = Trace of Precipitation, MM = Missing Value Source: NWS Daily Summary

Daily Weather History Graph

Daily Weather History Graph

Search for Another Location

Airport or City:

Trip Planner

Search our weather history database for the weather conditions in past years. The results will help you decide how hot, cold, wet, or windy it might be!

Date:

Astronomy

Jan. 18, 2013 Rise Set
Actual Time 7:14 AM EST 4:47 PM EST
Civil Twilight 6:43 AM EST 5:17 PM EST
Nautical Twilight 6:09 AM EST 5:52 PM EST
Astronomical Twilight 5:36 AM EST 6:25 PM EST
Moon 10:42 AM EST (1/18) No Moon Set
Length of Visible Light 10h 34m
Length of Day
9h 32m
Waxing Crescent, 47% of the Moon is Illuminated
Jan 18
Waxing Crescent
Jan 18
First Quarter
Jan 26
Full
Feb 3
Last Quarter
Feb 10
New

Hourly Weather History & Observations

Time (EST) Temp. Windchill Dew Point Humidity Pressure Visibility Wind Dir Wind Speed Gust Speed Precip Events Conditions
12:55 AM 26.4 °F 17.3 °F 6.8 °F 43% 30.07 in 10.0 mi NNW 9.2 mph - N/A   Overcast
1:55 AM 25.9 °F 19.2 °F 7.5 °F 46% 30.11 in 10.0 mi North 5.8 mph - N/A   Overcast
2:55 AM 25.3 °F 15.3 °F 7.0 °F 46% 30.11 in 10.0 mi North 10.4 mph - N/A   Overcast
3:55 AM 24.1 °F 11.5 °F 7.0 °F 48% 30.12 in 10.0 mi North 15.0 mph 19.6 mph N/A   Overcast
4:55 AM 20.5 °F 7.4 °F 0.9 °F 43% 30.16 in 10.0 mi North 13.8 mph - N/A   Clear
5:55 AM 18.9 °F 5.9 °F -1.1 °F 42% 30.21 in 10.0 mi North 12.7 mph - N/A   Mostly Cloudy
6:55 AM 17.8 °F 9.6 °F -1.7 °F 42% 30.26 in 10.0 mi NNW 5.8 mph - N/A   Clear
7:55 AM 17.2 °F 5.2 °F -3.1 °F 41% 30.31 in 10.0 mi NW 10.4 mph - N/A   Clear
8:55 AM 18.7 °F 9.5 °F -4.9 °F 35% 30.35 in 10.0 mi NNW 6.9 mph - N/A   Clear
9:55 AM 19.9 °F 6.2 °F -3.1 °F 36% 30.37 in 10.0 mi NNW 15.0 mph - N/A   Clear
10:55 AM 20.8 °F 9.0 °F -2.4 °F 36% 30.38 in 10.0 mi North 11.5 mph - N/A   Clear
11:55 AM 22.3 °F 13.0 °F -1.3 °F 36% 30.38 in 10.0 mi NNW 8.1 mph - N/A   Clear
12:55 PM 24.4 °F 11.9 °F 1.9 °F 38% 30.38 in 10.0 mi WNW 15.0 mph 27.6 mph N/A   Clear
1:55 PM 23.9 °F 12.3 °F 1.8 °F 38% 30.39 in 10.0 mi NW 12.7 mph - N/A   Clear
2:55 PM 24.1 °F 13.7 °F 3.0 °F 40% 30.41 in 10.0 mi NW 10.4 mph - N/A   Clear
3:55 PM 23.7 °F 15.6 °F 1.6 °F 38% 30.40 in 10.0 mi West 6.9 mph - N/A   Clear
4:55 PM 21.9 °F 10.4 °F 2.5 °F 43% 30.42 in 10.0 mi West 11.5 mph - N/A   Clear
5:55 PM 19.0 °F - 2.8 °F 49% 30.44 in 10.0 mi Calm Calm - N/A   Clear
6:55 PM 18.1 °F 10.0 °F 5.0 °F 57% 30.45 in 10.0 mi WSW 5.8 mph - N/A   Clear
7:55 PM 18.1 °F - 4.8 °F 56% 30.44 in 10.0 mi Calm Calm - N/A   Clear
8:50 PM 44.6 °F - 35.6 °F 71% 30.42 in 10.0 mi Calm Calm - N/A   Clear
8:55 PM 17.2 °F 11.9 °F 6.6 °F 63% 30.43 in 10.0 mi Variable 3.5 mph - N/A   Clear
9:55 PM 17.2 °F 11.9 °F 6.3 °F 62% 30.42 in 10.0 mi Variable 3.5 mph - N/A   Clear
10:55 PM 18.1 °F 11.3 °F 7.0 °F 62% 30.39 in 10.0 mi SSW 4.6 mph - N/A   Scattered Clouds
11:55 PM 22.3 °F 14.9 °F 8.2 °F 55% 30.37 in 10.0 mi SW 5.8 mph - N/A   Overcast